GW0206 Weather Reports


time (UTC)temp
C
wind
direction
speed
KPH
gust
KPH
rain 1hr
cm
rain 24hr
cm
rain mn
cm
humidity
%
barometer
mb
20260509125005 10 88 9.7 17.7 0.00 1.37 1.04 96 1007.9
20260509124511 10 60 6.4 16.1 0.00 1.37 1.04 96 1007.9
20260509124002 10 44 9.7 16.1 0.00 1.37 1.04 96 1007.9
20260509123504 10 79 6.4 14.5 0.00 1.37 1.04 96 1007.9
20260509123017 10 55 8.0 16.1 0.00 1.37 1.04 96 1007.7
20260509122506 10 52 6.4 16.1 0.00 1.37 1.04 97 1007.7
20260509122003 10 63 6.4 16.1 0.00 1.37 1.04 97 1007.8
20260509121511 10 69 6.4 16.1 0.00 1.37 1.04 97 1007.9
20260509121005 10 66 4.8 16.1 0.00 1.37 1.04 97 1007.9
20260509120504 10 61 8.0 16.1 0.00 1.37 1.04 96 1007.9
20260509120012 10 34 6.4 17.7 0.00 1.37 1.04 96 1007.9
20260509115503 10 19 6.4 17.7 0.00 1.37 1.04 96 1007.9
20260509115003 10 40 8.0 16.1 0.00 1.37 1.04 96 1008.0
20260509114506 10 5 6.4 14.5 0.00 1.37 1.04 97 1008.0
20260509114004 10 46 4.8 16.1 0.00 1.37 1.04 96 1008.0
20260509113504 10 40 6.4 16.1 0.00 1.37 1.04 96 1007.9
20260509113012 10 34 6.4 14.5 0.00 1.37 1.04 97 1007.8
20260509112504 10 5 4.8 12.9 0.00 1.37 1.04 96 1007.9
20260509112008 10 360 4.8 12.9 0.00 1.37 1.04 96 1007.9
20260509111514 10 38 3.2 11.3 0.00 1.37 1.04 96 1007.9
20260509111003 10 72 4.8 8.0 0.00 1.37 1.04 96 1007.8
20260509110505 10 44 3.2 9.7 0.00 1.37 1.04 96 1007.7
20260509110015 10 26 4.8 9.7 0.00 1.37 1.04 96 1007.6
20260509105510 10 44 3.2 9.7 0.00 1.37 1.04 96 1007.6
20260509105004 10 5 3.2 9.7 0.00 1.37 1.04 96 1007.5
20260509104514 10 53 4.8 9.7 0.00 1.40 1.04 96 1007.5
20260509104004 10 36 4.8 9.7 0.00 1.40 1.04 96 1007.5
20260509103503 10 36 1.6 9.7 0.00 1.40 1.04 96 1007.5
20260509103006 10 37 3.2 11.3 0.03 1.40 1.04 96 1007.5
20260509102502 10 17 4.8 12.9 0.03 1.40 1.04 96 1007.4
20260509102006 10 12 4.8 12.9 0.03 1.40 1.04 96 1007.4
20260509101513 10 52 4.8 12.9 0.03 1.40 1.04 96 1007.5
20260509101005 10 56 3.2 8.0 0.03 1.40 1.04 96 1007.5
20260509100506 10 58 4.8 14.5 0.05 1.40 1.04 96 1007.5
20260509100019 10 5 4.8 14.5 0.05 1.40 1.04 96 1007.5
20260509095505 10 44 3.2 12.9 0.08 1.40 1.04 96 1007.6
20260509095006 10 46 4.8 12.9 0.10 1.40 1.04 96 1007.7
20260509094529 10 42 3.2 12.9 0.10 1.40 1.04 96 1007.7
20260509094007 10 34 4.8 9.7 0.10 1.40 1.04 96 1007.7
20260509093505 10 21 6.4 16.1 0.13 1.40 1.04 96 1007.7
20260509093020 10 28 8.0 16.1 0.10 1.37 1.02 96 1007.8
20260509092508 10 351 6.4 14.5 0.13 1.37 1.02 96 1007.8
20260509092004 10 24 4.8 12.9 0.15 1.37 1.02 96 1007.8
20260509091508 10 26 6.4 16.1 0.18 1.37 1.02 96 1007.8
20260509091006 10 35 6.4 16.1 0.18 1.37 1.02 96 1007.8
20260509090507 10 26 6.4 14.5 0.15 1.32 0.99 97 1007.9
20260509090013 10 49 6.4 14.5 0.18 1.32 0.99 97 1008.0
20260509085506 10 66 4.8 14.5 0.15 1.32 0.97 96 1008.0
20260509085007 10 58 4.8 14.5 0.15 1.30 0.94 96 1008.1
20260509084520 10 30 4.8 14.5 0.18 1.30 0.94 96 1008.1
20260509084003 10 32 4.8 14.5 0.20 1.30 0.94 96 1008.1
20260509083507 10 9 4.8 12.9 0.18 1.27 0.91 96 1008.2
20260509083023 10 17 4.8 12.9 0.20 1.27 0.91 96 1008.2
20260509082503 9 352 6.4 9.7 0.18 1.24 0.89 96 1008.3
20260509082007 9 25 3.2 11.3 0.18 1.22 0.86 96 1008.3
20260509081533 9 13 6.4 11.3 0.15 1.19 0.84 96 1008.5
20260509081009 9 31 3.2 11.3 0.15 1.19 0.84 96 1008.5
20260509080504 9 17 4.8 14.5 0.20 1.19 0.84 96 1008.5
20260509080010 9 19 4.8 14.5 0.18 1.17 0.81 96 1008.5
20260509075505 9 15 3.2 11.3 0.20 1.17 0.81 96 1008.3
20260509075005 9 329 4.8 12.9 0.20 1.14 0.79 96 1008.3
20260509074516 9 5 4.8 12.9 0.20 1.12 0.76 96 1008.4
20260509074008 10 24 4.8 9.7 0.23 1.09 0.74 96 1008.6
20260509073508 10 12 3.2 9.7 0.23 1.09 0.74 96 1008.6
20260509073032 10 17 3.2 6.4 0.23 1.07 0.71 96 1008.5
20260509072507 10 360 1.6 6.4 0.28 1.07 0.71 96 1008.5
20260509072012 10 5 3.2 12.9 0.33 1.04 0.69 96 1008.6
20260509071538 10 5 4.8 12.9 0.36 1.04 0.69 96 1008.6
20260509071006 10 13 1.6 6.4 0.41 1.04 0.69 96 1008.7
20260509070513 10 355 3.2 6.4 0.41 0.99 0.64 96 1008.8
20260509070039 10 9 3.2 6.4 0.41 0.99 0.64 96 1008.7
20260509065513 10 29 1.6 8.0 0.41 0.97 0.61 96 1008.9
20260509065007 10 23 3.2 12.9 0.41 0.94 0.58 96 1008.9
20260509064514 10 17 3.2 12.9 0.41 0.91 0.56 96 1008.9
20260509064008 10 12 4.8 9.7 0.38 0.86 0.51 96 1008.9
20260509063506 10 19 3.2 9.7 0.41 0.86 0.51 96 1008.8
20260509063037 10 9 3.2 9.7 0.41 0.84 0.48 96 1009.0
20260509062508 10 5 3.2 11.3 0.36 0.79 0.43 96 1008.9
20260509062012 10 24 3.2 11.3 0.28 0.71 0.36 96 1009.0
20260509061516 10 5 1.6 8.0 0.25 0.69 0.33 96 1009.0
20260509061009 10 355 1.6 6.4 0.20 0.64 0.28 96 1009.2
20260509060510 10 40 3.2 6.4 0.15 0.61 0.23 96 1009.2
20260509060037 10 17 3.2 8.0 0.15 0.61 0.23 96 1009.3
20260509055507 10 30 1.6 8.0 0.13 0.58 0.20 96 1009.4
20260509055013 10 13 3.2 8.0 0.13 0.56 0.18 96 1009.4
20260509054529 10 28 3.2 8.0 0.10 0.53 0.15 96 1009.3
20260509054007 10 352 1.6 6.4 0.08 0.51 0.13 95 1009.5
20260509053507 10 14 1.6 6.4 0.05 0.48 0.10 96 1009.5
20260509053029 10 9 1.6 6.4 0.03 0.46 0.08 95 1009.6
20260509052506 10 349 1.6 4.8 0.03 0.46 0.08 95 1009.6
20260509052005 10 341 1.6 6.4 0.03 0.46 0.08 95 1009.6
20260509051523 10 329 1.6 6.4 0.05 0.46 0.08 95 1009.6
20260509051003 10 302 3.2 8.0 0.05 0.46 0.08 95 1009.6
20260509050502 10 317 3.2 8.0 0.05 0.46 0.08 95 1009.6
20260509050007 10 303 3.2 8.0 0.08 0.46 0.08 95 1009.7
20260509045504 9 309 3.2 6.4 0.08 0.46 0.08 95 1009.7
20260509045002 10 331 0.0 6.4 0.05 0.43 0.05 95 1009.8
20260509044509 9 321 1.6 6.4 0.05 0.43 0.05 95 1009.8
20260509044003 9 294 3.2 6.4 0.05 0.43 0.05 95 1009.7
20260509043503 9 327 1.6 6.4 0.05 0.43 0.05 95 1009.8
20260509043014 9 307 1.6 6.4 0.08 0.43 0.05 95 1009.9
20260509042507 9 300 1.6 4.8 0.08 0.43 0.05 95 1009.8
20260509042002 9 286 0.0 3.2 0.08 0.43 0.05 95 1010.0
20260509041511 9 286 0.0 4.8 0.05 0.41 0.03 95 1010.0
20260509041007 9 286 1.6 4.8 0.05 0.41 0.03 95 1010.0
20260509040507 9 286 1.6 4.8 0.05 0.41 0.03 95 1010.0
20260509040010 9 286 1.6 4.8 0.03 0.38 0.00 95 1010.1
20260509035509 9 279 3.2 6.4 0.05 0.38 0.38 95 1010.1
20260509035009 9 288 3.2 6.4 0.08 0.38 0.38 95 1010.2
20260509034508 9 292 1.6 4.8 0.08 0.38 0.38 95 1010.3
20260509034003 9 309 1.6 6.4 0.08 0.38 0.38 94 1010.4
20260509033502 9 296 1.6 6.4 0.08 0.38 0.38 94 1010.6
20260509033015 9 303 3.2 6.4 0.05 0.36 0.36 94 1010.6
20260509032504 9 308 3.2 6.4 0.05 0.36 0.36 94 1010.7
20260509032006 9 333 1.6 4.8 0.05 0.36 0.36 94 1010.8
20260509031514 9 292 0.0 3.2 0.08 0.36 0.36 94 1010.8
20260509031006 9 292 0.0 3.2 0.08 0.36 0.36 94 1010.9
20260509030506 9 292 0.0 6.4 0.08 0.36 0.36 94 1010.9
20260509030020 9 289 1.6 6.4 0.08 0.36 0.36 94 1010.7
20260509025508 9 278 1.6 6.4 0.05 0.33 0.33 94 1010.9
20260509025003 9 309 3.2 11.3 0.03 0.30 0.30 94 1011.0
20260509024517 9 309 3.2 12.9 0.03 0.30 0.30 94 1011.1
20260509024010 9 296 3.2 12.9 0.05 0.30 0.30 94 1011.1
20260509023511 9 304 3.2 11.3 0.05 0.30 0.30 94 1011.0
20260509023008 9 302 4.8 14.5 0.05 0.30 0.30 94 1011.1
20260509022504 9 296 6.4 14.5 0.05 0.30 0.30 94 1011.1
20260509022004 9 308 3.2 11.3 0.05 0.30 0.30 94 1011.2
20260509021512 9 300 4.8 11.3 0.03 0.28 0.28 94 1011.2
20260509021003 9 302 3.2 6.4 0.03 0.28 0.28 94 1011.2
20260509020504 9 282 3.2 6.4 0.03 0.28 0.28 93 1011.2
20260509020032 9 272 3.2 6.4 0.05 0.28 0.28 93 1011.2
20260509015505 9 279 3.2 6.4 0.05 0.28 0.28 93 1011.3
20260509015005 10 279 1.6 6.4 0.05 0.28 0.28 93 1011.3
20260509014538 10 267 1.6 6.4 0.05 0.28 0.28 93 1011.2
20260509014006 10 267 3.2 4.8 0.03 0.25 0.25 93 1011.2
20260509013504 10 267 0.0 3.2 0.05 0.25 0.25 93 1011.2
20260509013023 10 267 1.6 4.8 0.05 0.25 0.25 93 1011.1
20260509012509 10 250 1.6 4.8 0.05 0.25 0.25 93 1011.0
20260509012014 10 277 3.2 4.8 0.05 0.25 0.25 93 1011.1
20260509011516 10 248 1.6 4.8 0.05 0.25 0.25 92 1011.1
20260509011003 10 252 0.0 4.8 0.05 0.25 0.25 92 1011.1
20260509010502 10 271 0.0 4.8 0.05 0.25 0.25 92 1011.1
20260509010012 10 254 0.0 3.2 0.05 0.23 0.23 92 1011.1
20260509005503 10 130 0.0 3.2 0.05 0.23 0.23 92 1011.0
20260509005006 10 130 0.0 3.2 0.05 0.23 0.23 92 1010.9
20260509004522 10 130 0.0 1.6 0.05 0.23 0.23 91 1010.9
20260509004006 10 130 0.0 0.0 0.05 0.23 0.23 91 1010.7
20260509003509 10 130 0.0 1.6 0.03 0.20 0.20 91 1010.7
20260509003030 10 130 0.0 6.4 0.03 0.20 0.20 91 1010.6
20260509002510 10 130 1.6 6.4 0.03 0.20 0.20 91 1010.6
20260509002004 10 278 1.6 4.8 0.03 0.20 0.20 90 1010.6
20260509001523 10 241 0.0 3.2 0.03 0.20 0.20 90 1010.8
20260509001008 10 241 0.0 4.8 0.03 0.20 0.20 89 1010.8
20260509000503 10 117 0.0 6.4 0.03 0.20 0.20 89 1010.9
20260509000020 10 141 0.0 9.7 0.00 0.18 0.18 89 1011.2
20260508235508 10 94 4.8 11.3 0.00 0.18 0.18 89 1011.3
20260508235004 10 111 3.2 11.3 0.00 0.18 0.18 88 1011.0
20260508234512 11 190 1.6 6.4 0.00 0.18 0.18 88 1010.4
20260508234004 11 65 3.2 6.4 0.00 0.18 0.18 87 1010.4
20260508233507 11 235 1.6 6.4 0.00 0.18 0.18 87 1010.1
20260508233021 11 233 3.2 6.4 0.00 0.18 0.18 87 1010.0
20260508232507 11 263 3.2 6.4 0.00 0.18 0.18 86 1010.0
20260508232010 11 211 3.2 6.4 0.00 0.18 0.18 87 1010.0
20260508231523 11 200 0.0 9.7 0.00 0.18 0.18 87 1009.9
20260508231007 11 207 4.8 9.7 0.00 0.18 0.18 87 1009.9
20260508230507 11 198 4.8 9.7 0.00 0.18 0.18 86 1010.0
20260508230028 11 200 4.8 9.7 0.00 0.18 0.18 85 1010.1
20260508225508 11 200 3.2 6.4 0.00 0.18 0.18 85 1010.0
20260508225006 11 225 0.0 4.8 0.00 0.18 0.18 85 1010.0
20260508224527 11 221 1.6 4.8 0.00 0.18 0.18 85 1009.9
20260508224009 11 241 1.6 6.4 0.00 0.18 0.18 85 1009.8
20260508223513 11 259 1.6 6.4 0.00 0.18 0.18 85 1009.7
20260508223021 11 259 1.6 6.4 0.00 0.18 0.18 85 1009.7
20260508222508 11 278 1.6 6.4 0.00 0.18 0.18 85 1009.7
20260508222007 11 262 3.2 6.4 0.00 0.18 0.18 86 1009.6
20260508221518 11 283 3.2 6.4 0.00 0.18 0.18 86 1009.6
20260508221011 11 252 1.6 6.4 0.00 0.18 0.18 86 1009.7
20260508220510 11 268 1.6 9.7 0.00 0.18 0.18 86 1009.8
20260508220004 11 260 3.2 9.7 0.00 0.18 0.18 85 1009.8
20260508215502 11 278 4.8 9.7 0.00 0.18 0.18 85 1009.8
20260508215003 11 278 3.2 6.4 0.00 0.18 0.18 86 1010.0
20260508214515 11 266 1.6 4.8 0.00 0.18 0.18 85 1010.2
20260508214002 11 266 1.6 4.8 0.00 0.18 0.18 84 1010.2
20260508213506 11 266 1.6 4.8 0.00 0.18 0.18 84 1010.2
20260508213007 11 266 1.6 4.8 0.00 0.18 0.18 85 1010.2
20260508212501 11 266 0.0 4.8 0.00 0.18 0.18 85 1010.2
20260508212003 11 266 1.6 4.8 0.00 0.18 0.18 85 1010.2
20260508211505 11 305 1.6 4.8 0.00 0.18 0.18 84 1010.3
20260508211004 11 79 0.0 0.0 0.03 0.18 0.18 84 1010.5
20260508210503 11 79 0.0 0.0 0.03 0.18 0.18 85 1010.6
20260508210004 11 79 0.0 0.0 0.03 0.18 0.18 86 1010.7
20260508205504 11 79 0.0 0.0 0.05 0.18 0.18 86 1010.8
20260508205006 10 79 0.0 0.0 0.05 0.18 0.18 87 1010.9
20260508204504 10 79 0.0 0.0 0.05 0.18 0.18 89 1010.9
20260508204003 10 79 0.0 1.6 0.05 0.18 0.18 91 1011.1
20260508203507 10 79 0.0 3.2 0.05 0.18 0.18 90 1011.3
20260508203012 10 79 0.0 4.8 0.05 0.18 0.18 90 1011.2
20260508202503 10 79 0.0 4.8 0.05 0.18 0.18 89 1011.3
20260508202002 10 79 1.6 8.0 0.05 0.18 0.18 89 1011.4
20260508201509 10 76 3.2 8.0 0.05 0.18 0.18 89 1011.5
20260508201007 10 105 1.6 6.4 0.03 0.15 0.15 89 1011.6
20260508200503 10 98 3.2 6.4 0.03 0.15 0.15 88 1011.6
20260508200005 10 81 1.6 4.8 0.03 0.15 0.15 87 1011.7
20260508195503 10 83 1.6 9.7 0.00 0.13 0.13 87 1011.5
20260508195002 10 76 1.6 9.7 0.00 0.13 0.13 85 1011.5
20260508194506 10 137 4.8 11.3 0.00 0.13 0.13 84 1011.5
20260508194003 10 115 4.8 12.9 0.03 0.13 0.13 84 1011.4
20260508193506 10 57 4.8 14.5 0.03 0.13 0.13 82 1011.4
20260508193003 11 47 4.8 17.7 0.03 0.13 0.13 83 1011.4
20260508192504 10 64 9.7 22.5 0.03 0.13 0.13 84 1011.4
20260508192008 10 51 11.3 22.5 0.03 0.13 0.13 83 1011.5
20260508191522 10 41 11.3 20.9 0.03 0.13 0.13 85 1011.6
20260508191003 10 43 9.7 20.9 0.05 0.13 0.13 86 1011.5
20260508190503 10 21 9.7 20.9 0.05 0.13 0.13 86 1011.7
20260508190028 10 51 6.4 19.3 0.05 0.13 0.13 87 1011.7
20260508185502 10 82 11.3 27.4 0.05 0.13 0.13 87 1012.0
20260508185004 10 28 14.5 27.4 0.05 0.13 0.13 86 1011.9
20260508184505 10 38 9.7 17.7 0.08 0.13 0.13 86 1011.8
20260508184004 10 53 6.4 16.1 0.05 0.10 0.10 86 1011.9
20260508183507 10 9 8.0 16.1 0.05 0.10 0.10 86 1012.0
20260508183007 10 55 9.7 16.1 0.05 0.10 0.10 86 1012.2
20260508182504 10 43 8.0 19.3 0.05 0.10 0.10 84 1012.3
20260508182011 11 105 11.3 20.9 0.05 0.10 0.10 84 1012.4
20260508181507 11 113 11.3 20.9 0.05 0.10 0.10 83 1012.6
20260508181002 11 47 9.7 17.7 0.03 0.08 0.08 82 1012.7
20260508180508 11 92 8.0 22.5 0.03 0.08 0.08 81 1012.7
20260508180005 11 100 11.3 25.7 0.03 0.08 0.08 79 1012.7
20260508175503 11 108 9.7 27.4 0.03 0.08 0.08 78 1012.7
20260508175007 12 78 12.9 27.4 0.03 0.08 0.08 77 1012.8
20260508174521 12 110 12.9 22.5 0.00 0.05 0.05 77 1012.8
20260508174004 12 49 8.0 16.1 0.00 0.05 0.05 76 1012.8
20260508173509 12 96 6.4 22.5 0.00 0.05 0.05 77 1012.8
20260508173004 12 51 8.0 25.7 0.00 0.05 0.05 74 1012.7
20260508172505 12 102 11.3 29.0 0.00 0.05 0.05 73 1012.7
20260508172004 12 111 14.5 29.0 0.00 0.05 0.05 71 1012.7
20260508171509 12 134 11.3 24.1 0.00 0.05 0.05 72 1012.7
20260508171004 12 95 9.7 24.1 0.00 0.05 0.05 72 1012.7
20260508170504 12 55 9.7 19.3 0.00 0.05 0.05 73 1012.7
20260508170012 13 72 9.7 22.5 0.00 0.05 0.05 74 1012.6
20260508165505 13 130 11.3 25.7 0.00 0.05 0.05 71 1012.6
20260508165004 13 78 8.0 25.7 0.00 0.05 0.05 70 1012.7
20260508164509 13 44 16.1 25.7 0.00 0.05 0.05 66 1012.7
20260508164004 13 120 11.3 27.4 0.00 0.05 0.05 65 1012.6
20260508163508 14 107 16.1 27.4 0.00 0.05 0.05 65 1012.7
20260508163024 14 98 9.7 25.7 0.00 0.05 0.05 66 1012.6
20260508162504 14 73 11.3 27.4 0.00 0.05 0.05 66 1012.6
20260508162006 14 76 11.3 27.4 0.00 0.05 0.05 67 1012.6
20260508161521 15 96 14.5 27.4 0.00 0.05 0.05 66 1012.8
20260508161004 14 127 9.7 22.5 0.00 0.05 0.05 71 1012.8
20260508160504 13 115 12.9 22.5 0.00 0.05 0.05 68 1012.9
20260508160010 13 36 4.8 22.5 0.00 0.05 0.05 71 1013.0
20260508155505 13 107 11.3 25.7 0.00 0.05 0.05 70 1013.1
20260508155004 13 57 12.9 25.7 0.00 0.05 0.05 70 1012.9
20260508154515 13 62 11.3 24.1 0.00 0.05 0.05 69 1012.9
20260508154005 13 98 16.1 24.1 0.00 0.05 0.05 68 1012.9
20260508153510 13 88 9.7 29.0 0.00 0.05 0.05 67 1012.9
20260508153014 13 104 14.5 29.0 0.00 0.05 0.05 67 1012.8
20260508152510 14 57 12.9 25.7 0.00 0.05 0.05 68 1012.8
20260508152010 13 118 8.0 27.4 0.00 0.05 0.05 71 1012.7
20260508151511 13 89 9.7 30.6 0.00 0.05 0.05 70 1012.7
20260508151006 13 98 8.0 30.6 0.00 0.05 0.05 68 1012.7
20260508150509 13 110 17.7 30.6 0.00 0.05 0.05 67 1012.7
20260508150033 13 120 6.4 32.2 0.00 0.05 0.05 68 1012.8
20260508145506 13 85 14.5 32.2 0.00 0.05 0.05 67 1012.8
20260508145004 13 108 14.5 27.4 0.00 0.05 0.05 66 1012.7
20260508144510 13 111 11.3 25.7 0.00 0.05 0.05 67 1012.7
20260508144006 13 106 11.3 22.5 0.00 0.05 0.05 68 1012.8
20260508143509 13 117 11.3 22.5 0.00 0.05 0.05 65 1012.8
20260508143015 13 136 12.9 22.5 0.00 0.05 0.05 66 1012.7
20260508142506 13 115 8.0 20.9 0.00 0.05 0.05 71 1012.7
20260508142003 13 110 9.7 29.0 0.00 0.05 0.05 68 1012.8
20260508141522 13 112 19.3 29.0 0.00 0.05 0.05 67 1012.8
20260508141007 12 76 9.7 32.2 0.00 0.05 0.05 69 1012.8
20260508140511 12 113 11.3 32.2 0.00 0.05 0.05 69 1012.8
20260508140014 12 87 4.8 24.1 0.00 0.05 0.05 73 1012.8
20260508135510 12 96 12.9 25.7 0.00 0.05 0.05 69 1012.9
20260508135011 12 55 11.3 25.7 0.00 0.05 0.05 71 1012.9
20260508134537 12 100 11.3 20.9 0.00 0.05 0.05 72 1012.9
20260508134008 11 134 8.0 24.1 0.00 0.05 0.05 71 1013.0
20260508133513 11 126 9.7 30.6 0.00 0.05 0.05 70 1013.1
20260508133015 11 109 17.7 30.6 0.00 0.05 0.05 69 1013.1
20260508132506 11 65 8.0 24.1 0.00 0.05 0.05 71 1013.2
20260508132007 11 148 11.3 24.1 0.00 0.05 0.05 69 1013.1
20260508131517 11 88 12.9 22.5 0.00 0.05 0.05 70 1013.1
20260508131007 11 126 9.7 22.5 0.00 0.05 0.05 70 1013.2
20260508130508 11 76 9.7 17.7 0.00 0.05 0.05 71 1013.2
20260508130006 11 140 4.8 17.7 0.00 0.05 0.05 72 1013.2
20260508125503 10 119 6.4 27.4 0.00 0.05 0.05 72 1013.2